Springboro, OH

8:19 PM EST on February 13, 2016 (GMT -0500)
Dayton-Wright Brothers

Weather History for KMGY - December, 2013

Change the Weather History Date:

Friday, December 13, 2013

  Actual Average (KFFO) Record (KFFO)
Temperature  
Mean Temperature 25 °F -  
Max Temperature 35 °F 39 °F 62 °F (2015)
Min Temperature 15 °F 25 °F 10 °F (2005)
Degree Days  
Heating Degree Days 40    
Moisture  
Dew Point 18 °F    
Average Humidity 67    
Maximum Humidity 96    
Minimum Humidity 50    
Precipitation  
Precipitation 0.02 in - - ()
Sea Level Pressure  
Sea Level Pressure 30.24 in    
Wind  
Wind Speed 6 mph (SSW)    
Max Wind Speed 9 mph    
Max Gust Speed -    
Visibility 8 miles    
Events Snow    
Averages and records for this station are not official NWS values.
T = Trace of Precipitation, MM = Missing Value Source: NWS Daily Summary

Daily Weather History Graph

Daily Weather History Graph

Search for Another Location

Airport or City:

Trip Planner

Search our weather history database for the weather conditions in past years. The results will help you decide how hot, cold, wet, or windy it might be!

Date:

Astronomy

Dec. 13, 2013 Rise Set
Actual Time 7:49 AM EST 5:13 PM EST
Civil Twilight 7:18 AM EST 5:43 PM EST
Nautical Twilight 6:45 AM EST 6:17 PM EST
Astronomical Twilight 6:12 AM EST 6:50 PM EST
Moon 2:55 PM EST (12/13) 4:11 AM EST (12/13)
Length of Visible Light 10h 24m
Length of Day
9h 24m
Waxing Gibbous, 88% of the Moon is Illuminated
Dec 13
Waxing Gibbous
Dec 17
Full
Dec 25
Last Quarter
Jan 1
New
Jan 7
First Quarter

Hourly Weather History & Observations

Time (EST) Temp. Windchill Dew Point Humidity Pressure Visibility Wind Dir Wind Speed Gust Speed Precip Events Conditions
12:53 AM 17.1 °F 7.6 °F 7.0 °F 65% 30.35 in 10.0 mi South 6.9 mph - N/A   Clear
1:53 AM 19.9 °F 12.1 °F 8.1 °F 60% 30.32 in 10.0 mi SSW 5.8 mph - N/A   Overcast
2:53 AM 21.0 °F 11.4 °F 9.0 °F 60% 30.32 in 10.0 mi SSW 8.1 mph - N/A   Overcast
3:53 AM 21.0 °F 12.4 °F 9.0 °F 60% 30.31 in 10.0 mi SSW 6.9 mph - N/A   Overcast
4:53 AM 19.9 °F 13.4 °F 9.0 °F 62% 30.29 in 10.0 mi SSW 4.6 mph - N/A   Scattered Clouds
5:53 AM 16.0 °F 7.4 °F 8.1 °F 71% 30.28 in 10.0 mi South 5.8 mph - N/A   Clear
6:53 AM 16.0 °F 8.8 °F 9.0 °F 74% 30.29 in 10.0 mi South 4.6 mph - N/A   Clear
7:53 AM 15.1 °F 7.7 °F 9.0 °F 77% 30.29 in 10.0 mi South 4.6 mph - N/A   Clear
8:53 AM 16.0 °F 8.8 °F 10.0 °F 77% 30.29 in 10.0 mi South 4.6 mph - N/A   Clear
9:53 AM 21.0 °F 13.4 °F 12.9 °F 71% 30.30 in 10.0 mi SSW 5.8 mph - N/A   Clear
10:53 AM 26.1 °F 17.6 °F 14.0 °F 60% 30.30 in 10.0 mi SW 8.1 mph - N/A   Clear
11:53 AM 28.9 °F 20.4 °F 16.0 °F 58% 30.27 in 10.0 mi SW 9.2 mph - N/A   Clear
12:53 PM 30.9 °F 24.3 °F 17.1 °F 57% 30.24 in 10.0 mi SW 6.9 mph - N/A   Clear
1:53 PM 34.0 °F 26.6 °F 18.0 °F 52% 30.21 in 10.0 mi South 9.2 mph - N/A   Clear
2:53 PM 35.1 °F 28.6 °F 18.0 °F 50% 30.21 in 10.0 mi SSW 8.1 mph - N/A   Clear
3:53 PM 35.1 °F 29.3 °F 18.0 °F 50% 30.19 in 10.0 mi SSW 6.9 mph - N/A   Clear
4:53 PM 34.0 °F 29.8 °F 19.0 °F 54% 30.18 in 10.0 mi South 4.6 mph - N/A   Clear
5:53 PM 34.0 °F - 19.0 °F 54% 30.19 in 10.0 mi Calm Calm - N/A   Clear
6:53 PM 35.1 °F 28.6 °F 19.0 °F 52% 30.21 in 10.0 mi South 8.1 mph - N/A   Clear
7:53 PM 34.0 °F 26.6 °F 19.9 °F 56% 30.22 in 10.0 mi South 9.2 mph - N/A   Partly Cloudy
8:53 PM 35.1 °F 31.0 °F 19.0 °F 52% 30.23 in 10.0 mi SW 4.6 mph - N/A   Overcast
9:53 PM 35.1 °F 32.2 °F 23.0 °F 61% 30.20 in 9.0 mi North 3.5 mph - 0.00 in Snow Light Snow
10:23 PM 33.8 °F 26.4 °F 26.6 °F 75% 30.16 in 1.8 mi SSW 9.2 mph - 0.00 in Snow Light Snow
10:31 PM 33.8 °F 27.7 °F 30.2 °F 87% 30.15 in 1.2 mi South 6.9 mph - 0.00 in Snow Light Snow
10:53 PM 32.0 °F 28.7 °F 30.9 °F 96% 30.18 in 1.2 mi SSE 3.5 mph - 0.01 in Snow Light Snow
11:12 PM 32.0 °F 28.7 °F 30.2 °F 93% 30.15 in 2.5 mi South 3.5 mph - 0.01 in Snow Light Snow
11:15 PM 32.0 °F 27.5 °F 30.2 °F 93% 30.15 in 3.0 mi SSE 4.6 mph - 0.01 in Snow Light Snow
11:53 PM 32.0 °F - 30.9 °F 96% 30.18 in 8.0 mi Calm Calm - 0.01 in   Overcast